ENT3RU EPKT-LGKR

Flight info

Callsign ENT3RU
Flight time 1h 44m
Altitude 35000
Route BABKO DCT DEMOP DCT PARAK DCT REDVA UL616 KOGAT DCT BITLA UN731 YNN M600 PARAX
Aircraft B738/M-SDE2E3FGHIRWXY/LB1

Departure

Time 2026-05-05 12:23
Airport Katowice Wojciech Korfanty International Airport (EPKT)

Arrival

Time 2026-05-05 14:07
Airport Corfu Ioannis Kapodistrias International Airport (LGKR)
Time Latitude Longitude Altitude Speed Heading
2026-05-05 11:59 50.47149 19.08184 984 ft 0 kts 180°
2026-05-05 12:14 50.47158 19.08184 984 ft 2 kts 180°
2026-05-05 12:14 50.47172 19.08184 984 ft 2 kts 180°
2026-05-05 12:15 50.47188 19.08184 984 ft 2 kts 180°
2026-05-05 12:15 50.47198 19.08184 984 ft 0 kts 180°
2026-05-05 12:15 50.47212 19.08181 983 ft 2 kts 156°
2026-05-05 12:15 50.47225 19.08168 983 ft 2 kts 133°
2026-05-05 12:16 50.47233 19.08148 983 ft 2 kts 108°
2026-05-05 12:16 50.47235 19.08133 983 ft 0 kts 92°
2026-05-05 12:16 50.47234 19.08122 983 ft 0 kts 90°
2026-05-05 12:18 50.47234 19.08124 983 ft 1 kts 90°
2026-05-05 12:19 50.47235 19.08179 983 ft 8 kts 90°
2026-05-05 12:19 50.47234 19.08295 985 ft 13 kts 90°
2026-05-05 12:19 50.47234 19.08477 985 ft 20 kts 90°
2026-05-05 12:19 50.47234 19.08730 988 ft 26 kts 90°
2026-05-05 12:20 50.47232 19.09017 992 ft 24 kts 90°
2026-05-05 12:20 50.47233 19.09267 993 ft 22 kts 90°
2026-05-05 12:20 50.47230 19.09492 998 ft 19 kts 90°
2026-05-05 12:20 50.47230 19.09695 1002 ft 18 kts 89°
2026-05-05 12:21 50.47230 19.09888 1007 ft 17 kts 90°
2026-05-05 12:21 50.47257 19.10065 1012 ft 16 kts 51°
2026-05-05 12:21 50.47337 19.10226 1012 ft 21 kts 52°
2026-05-05 12:21 50.47433 19.10412 1010 ft 21 kts 45°
2026-05-05 12:22 50.47568 19.10440 1007 ft 17 kts 335°
2026-05-05 12:22 50.47593 19.10267 1006 ft 23 kts 271°
2026-05-05 12:22 50.47589 19.09609 990 ft 100 kts 270°
2026-05-05 12:22 50.47594 19.08128 985 ft 166 kts 267°
2026-05-05 12:23 50.47618 19.06227 1547 ft 180 kts 269°
2026-05-05 12:23 50.47672 19.04379 2489 ft 170 kts 266°
2026-05-05 12:23 50.47705 19.02497 3049 ft 176 kts 262°
2026-05-05 12:23 50.47654 19.00531 3538 ft 189 kts 262°
2026-05-05 12:24 50.47591 18.98415 4050 ft 201 kts 257°
2026-05-05 12:24 50.47152 18.96272 4494 ft 213 kts 232°
2026-05-05 12:24 50.46059 18.94668 5053 ft 223 kts 209°
2026-05-05 12:24 50.44589 18.93755 5636 ft 237 kts 190°
2026-05-05 12:25 50.42901 18.93591 6258 ft 251 kts 181°
2026-05-05 12:25 50.41128 18.93672 7003 ft 259 kts 180°
2026-05-05 12:25 50.39314 18.93739 7828 ft 263 kts 182°
2026-05-05 12:25 50.37487 18.93758 8637 ft 268 kts 183°
2026-05-05 12:26 50.35618 18.93751 9433 ft 272 kts 184°
2026-05-05 12:26 50.33720 18.93754 10190 ft 278 kts 180°
2026-05-05 12:26 50.31783 18.94382 10648 ft 299 kts 162°
2026-05-05 12:26 50.29834 18.95825 11143 ft 317 kts 156°
2026-05-05 12:27 50.27871 18.97483 11611 ft 332 kts 155°
2026-05-05 12:27 50.25769 18.99218 12064 ft 347 kts 156°
2026-05-05 12:27 50.23597 19.00927 12753 ft 353 kts 156°
2026-05-05 12:27 50.21367 19.02624 13578 ft 356 kts 157°
2026-05-05 12:28 50.19147 19.04285 14338 ft 360 kts 157°
2026-05-05 12:28 50.16889 19.05963 15069 ft 364 kts 157°
2026-05-05 12:28 50.14602 19.07659 15800 ft 368 kts 157°
2026-05-05 12:28 50.12286 19.09376 16515 ft 372 kts 157°
2026-05-05 12:29 50.09947 19.11112 17243 ft 375 kts 157°
2026-05-05 12:29 50.07591 19.12860 17928 ft 378 kts 157°
2026-05-05 12:29 50.05217 19.14618 18545 ft 383 kts 157°
2026-05-05 12:29 50.02798 19.16409 19145 ft 388 kts 157°
2026-05-05 12:30 50.00337 19.18229 19746 ft 392 kts 156°
2026-05-05 12:30 49.97867 19.20053 20333 ft 397 kts 156°
2026-05-05 12:30 49.95359 19.21903 20892 ft 402 kts 156°
2026-05-05 12:30 49.92828 19.23767 21443 ft 406 kts 156°
2026-05-05 12:31 49.90292 19.25634 21988 ft 410 kts 156°
2026-05-05 12:31 49.87696 19.27541 22502 ft 415 kts 156°
2026-05-05 12:31 49.85083 19.29461 23033 ft 419 kts 156°
2026-05-05 12:31 49.82441 19.31400 23528 ft 424 kts 156°
2026-05-05 12:32 49.79765 19.33360 24112 ft 426 kts 156°
2026-05-05 12:32 49.77063 19.35335 24651 ft 430 kts 156°
2026-05-05 12:32 49.74367 19.37306 25199 ft 432 kts 156°
2026-05-05 12:32 49.71621 19.39311 25722 ft 435 kts 156°
2026-05-05 12:33 49.68883 19.41308 26197 ft 439 kts 156°
2026-05-05 12:33 49.66135 19.43310 26691 ft 441 kts 156°
2026-05-05 12:33 49.63320 19.45330 27180 ft 444 kts 157°
2026-05-05 12:33 49.60485 19.47118 27612 ft 446 kts 161°
2026-05-05 12:34 49.57536 19.48627 28083 ft 448 kts 164°
2026-05-05 12:34 49.54499 19.49977 28512 ft 451 kts 166°
2026-05-05 12:34 49.51475 19.51232 28958 ft 454 kts 166°
2026-05-05 12:34 49.48435 19.52463 29421 ft 456 kts 166°
2026-05-05 12:35 49.45345 19.53709 29927 ft 457 kts 166°
2026-05-05 12:35 49.42274 19.54953 30497 ft 456 kts 166°
2026-05-05 12:35 49.39267 19.56182 31257 ft 450 kts 166°
2026-05-05 12:35 49.36256 19.57420 31976 ft 445 kts 166°
2026-05-05 12:36 49.33289 19.58641 32528 ft 443 kts 166°
2026-05-05 12:36 49.30304 19.59872 33007 ft 442 kts 166°
2026-05-05 12:36 49.27345 19.61093 33434 ft 442 kts 166°
2026-05-05 12:36 49.24361 19.62325 33887 ft 442 kts 166°
2026-05-05 12:37 49.21413 19.63544 34346 ft 440 kts 166°
2026-05-05 12:37 49.18458 19.64768 34740 ft 440 kts 166°
2026-05-05 12:37 49.15554 19.65968 34967 ft 442 kts 167°
2026-05-05 12:37 49.12551 19.67208 34981 ft 442 kts 167°
2026-05-05 12:38 49.06707 19.69617 34984 ft 439 kts 167°
2026-05-05 12:38 49.00826 19.72038 34980 ft 440 kts 167°
2026-05-05 12:39 48.94899 19.74471 34977 ft 440 kts 167°
2026-05-05 12:39 48.88995 19.76881 34981 ft 440 kts 167°
2026-05-05 12:40 48.83128 19.79270 34982 ft 440 kts 167°
2026-05-05 12:40 48.77208 19.81678 34982 ft 441 kts 167°
2026-05-05 12:41 48.71316 19.84075 34983 ft 440 kts 167°
2026-05-05 12:41 48.65376 19.86482 34976 ft 440 kts 167°
2026-05-05 12:42 48.59475 19.88868 34974 ft 441 kts 167°
2026-05-05 12:42 48.53610 19.91231 34971 ft 441 kts 167°
2026-05-05 12:43 48.47726 19.93598 34965 ft 441 kts 167°
2026-05-05 12:43 48.41776 19.95986 34958 ft 442 kts 167°
2026-05-05 12:44 48.35840 19.98363 34958 ft 442 kts 167°
2026-05-05 12:44 48.29892 20.00738 34957 ft 442 kts 167°
2026-05-05 12:45 48.23979 20.03095 34955 ft 441 kts 167°
2026-05-05 12:45 48.18021 20.05236 34952 ft 439 kts 172°
2026-05-05 12:46 48.11947 20.06078 34953 ft 439 kts 180°
2026-05-05 12:46 48.05832 20.06181 34953 ft 439 kts 181°
2026-05-05 12:47 47.99724 20.06178 34953 ft 440 kts 181°
2026-05-05 12:47 47.93602 20.06214 34949 ft 440 kts 181°
2026-05-05 12:48 47.87454 20.06292 34946 ft 440 kts 181°
2026-05-05 12:48 47.81333 20.06393 34948 ft 440 kts 181°
2026-05-05 12:49 47.75260 20.06501 34943 ft 439 kts 181°
2026-05-05 12:49 47.69195 20.06613 34942 ft 438 kts 181°
2026-05-05 12:50 47.63071 20.06728 34952 ft 440 kts 181°
2026-05-05 12:50 47.56936 20.06842 34953 ft 440 kts 181°
2026-05-05 12:51 47.50800 20.06958 34954 ft 441 kts 181°
2026-05-05 12:51 47.44708 20.07074 34951 ft 440 kts 181°
2026-05-05 12:52 47.38576 20.07187 34949 ft 440 kts 181°
2026-05-05 12:52 47.32456 20.07301 34954 ft 440 kts 181°
2026-05-05 12:53 47.26328 20.07418 34956 ft 440 kts 181°
2026-05-05 12:53 47.20190 20.07533 34960 ft 441 kts 181°
2026-05-05 12:54 47.11018 20.07700 34963 ft 441 kts 181°
2026-05-05 12:55 47.04887 20.07813 34960 ft 442 kts 181°
2026-05-05 12:55 46.98753 20.07925 34955 ft 440 kts 181°
2026-05-05 12:56 46.92629 20.08038 34963 ft 441 kts 181°
2026-05-05 12:56 46.86478 20.08150 34949 ft 441 kts 181°
2026-05-05 12:57 46.80336 20.08262 34945 ft 443 kts 181°
2026-05-05 12:57 46.74164 20.08374 34946 ft 443 kts 181°
2026-05-05 12:58 46.68005 20.08486 34938 ft 443 kts 181°
2026-05-05 12:58 46.61863 20.08598 34935 ft 442 kts 181°
2026-05-05 12:59 46.55720 20.08710 34939 ft 442 kts 181°
2026-05-05 12:59 46.49524 20.08820 34936 ft 443 kts 181°
2026-05-05 13:00 46.40295 20.08985 34938 ft 444 kts 181°
2026-05-05 13:01 46.27953 20.09207 34939 ft 444 kts 181°
2026-05-05 13:01 46.21797 20.09315 34937 ft 444 kts 181°
2026-05-05 13:02 46.15619 20.09466 34937 ft 445 kts 179°
2026-05-05 13:02 46.09408 20.10257 34942 ft 446 kts 175°
2026-05-05 13:03 46.03264 20.11370 34940 ft 447 kts 174°
2026-05-05 13:03 45.97094 20.12493 34938 ft 447 kts 175°
2026-05-05 13:04 45.90964 20.13555 34939 ft 447 kts 175°
2026-05-05 13:04 45.84825 20.14577 34941 ft 447 kts 175°
2026-05-05 13:05 45.78610 20.15591 34943 ft 447 kts 175°
2026-05-05 13:05 45.72440 20.16592 34943 ft 448 kts 175°
2026-05-05 13:06 45.66218 20.17602 34943 ft 448 kts 175°
2026-05-05 13:06 45.60081 20.18596 34945 ft 447 kts 176°
2026-05-05 13:07 45.53900 20.19594 34950 ft 448 kts 175°
2026-05-05 13:07 45.47662 20.20598 34955 ft 449 kts 176°
2026-05-05 13:08 45.41456 20.21595 34957 ft 449 kts 176°
2026-05-05 13:08 45.35255 20.22593 34959 ft 449 kts 176°
2026-05-05 13:09 45.29053 20.23582 34961 ft 450 kts 176°
2026-05-05 13:09 45.22820 20.24572 34963 ft 451 kts 176°
2026-05-05 13:10 45.16544 20.25572 34965 ft 451 kts 176°
2026-05-05 13:10 45.10322 20.26562 34971 ft 451 kts 176°
2026-05-05 13:11 45.04114 20.27549 34971 ft 451 kts 176°
2026-05-05 13:11 44.97858 20.28537 34972 ft 452 kts 176°
2026-05-05 13:12 44.91588 20.29526 34975 ft 453 kts 176°
2026-05-05 13:12 44.85393 20.30502 34973 ft 453 kts 176°
2026-05-05 13:13 44.79099 20.31490 34977 ft 453 kts 176°
2026-05-05 13:13 44.72837 20.32469 34977 ft 452 kts 176°
2026-05-05 13:14 44.66586 20.33443 34976 ft 453 kts 176°
2026-05-05 13:14 44.60319 20.34421 34973 ft 454 kts 176°
2026-05-05 13:15 44.54034 20.35399 34970 ft 454 kts 176°
2026-05-05 13:15 44.47780 20.36372 34965 ft 454 kts 176°
2026-05-05 13:16 44.41501 20.37349 34968 ft 454 kts 176°
2026-05-05 13:16 44.35241 20.38320 34972 ft 455 kts 176°
2026-05-05 13:17 44.28914 20.39297 34981 ft 455 kts 176°
2026-05-05 13:17 44.22648 20.40263 34990 ft 456 kts 176°
2026-05-05 13:18 44.16328 20.41235 35000 ft 456 kts 176°
2026-05-05 13:18 44.10019 20.42202 35006 ft 457 kts 176°
2026-05-05 13:19 44.03735 20.43162 35011 ft 458 kts 176°
2026-05-05 13:19 43.97346 20.44138 35019 ft 459 kts 176°
2026-05-05 13:20 43.91036 20.45100 35016 ft 459 kts 177°
2026-05-05 13:20 43.84737 20.46058 35016 ft 459 kts 176°
2026-05-05 13:21 43.78382 20.47027 35016 ft 459 kts 177°
2026-05-05 13:21 43.72012 20.47987 35018 ft 461 kts 177°
2026-05-05 13:22 43.65631 20.48950 35028 ft 461 kts 177°
2026-05-05 13:22 43.59246 20.49918 35043 ft 463 kts 177°
2026-05-05 13:23 43.52828 20.50883 35054 ft 463 kts 177°
2026-05-05 13:23 43.46410 20.51845 35055 ft 462 kts 177°
2026-05-05 13:24 43.40031 20.52799 35053 ft 462 kts 178°
2026-05-05 13:24 43.33629 20.53753 35062 ft 464 kts 178°
2026-05-05 13:25 43.27243 20.54704 35062 ft 465 kts 178°
2026-05-05 13:25 43.20857 20.55657 35067 ft 467 kts 178°
2026-05-05 13:26 43.14437 20.56612 35070 ft 465 kts 178°
2026-05-05 13:26 43.08040 20.57561 35079 ft 465 kts 178°
2026-05-05 13:27 43.01635 20.58816 35082 ft 469 kts 172°
2026-05-05 13:27 42.95351 20.61405 35086 ft 477 kts 163°
2026-05-05 13:28 42.89204 20.64671 35082 ft 476 kts 161°
2026-05-05 13:28 42.83085 20.68044 35081 ft 478 kts 162°
2026-05-05 13:29 42.76963 20.71356 35080 ft 477 kts 162°
2026-05-05 13:29 42.70837 20.74608 35081 ft 476 kts 162°
2026-05-05 13:30 42.64735 20.77810 35085 ft 479 kts 163°
2026-05-05 13:30 42.58565 20.81035 35087 ft 480 kts 163°
2026-05-05 13:31 42.52325 20.84282 35089 ft 482 kts 163°
2026-05-05 13:31 42.46081 20.87536 35094 ft 483 kts 163°
2026-05-05 13:32 42.39842 20.90777 35097 ft 484 kts 163°
2026-05-05 13:32 42.33575 20.94028 35099 ft 482 kts 163°
2026-05-05 13:33 42.27276 20.97278 35107 ft 490 kts 163°
2026-05-05 13:33 42.20955 21.00528 35108 ft 487 kts 163°
2026-05-05 13:34 42.14688 21.03752 35102 ft 488 kts 164°
2026-05-05 13:34 42.08190 21.06464 35091 ft 486 kts 171°
2026-05-05 13:35 42.01654 21.08235 35080 ft 484 kts 175°
2026-05-05 13:35 41.95073 21.09762 35078 ft 481 kts 175°
2026-05-05 13:36 41.88565 21.11271 35090 ft 485 kts 175°
2026-05-05 13:36 41.81900 21.12856 35096 ft 484 kts 175°
2026-05-05 13:37 41.75325 21.14452 35099 ft 485 kts 174°
2026-05-05 13:37 41.68706 21.16074 35096 ft 483 kts 175°
2026-05-05 13:38 41.62128 21.17694 35092 ft 484 kts 174°
2026-05-05 13:38 41.55490 21.19328 35095 ft 485 kts 174°
2026-05-05 13:39 41.48860 21.20947 35097 ft 485 kts 175°
2026-05-05 13:39 41.42202 21.22572 35098 ft 487 kts 174°
2026-05-05 13:40 41.35576 21.24191 35099 ft 486 kts 174°
2026-05-05 13:40 41.28947 21.25807 35096 ft 487 kts 174°
2026-05-05 13:41 41.22315 21.27416 35096 ft 486 kts 174°
2026-05-05 13:41 41.15606 21.29039 35102 ft 489 kts 174°
2026-05-05 13:42 41.08965 21.30647 35108 ft 487 kts 174°
2026-05-05 13:42 41.02390 21.32235 35112 ft 489 kts 174°
2026-05-05 13:43 40.95774 21.33822 35112 ft 489 kts 174°
2026-05-05 13:43 40.89077 21.35212 35117 ft 485 kts 180°
2026-05-05 13:44 40.82503 21.35081 35124 ft 476 kts 192°
2026-05-05 13:44 40.75997 21.33894 35135 ft 473 kts 195°
2026-05-05 13:45 40.69539 21.32493 35135 ft 471 kts 195°
2026-05-05 13:45 40.63183 21.31151 34718 ft 460 kts 195°
2026-05-05 13:46 40.60009 21.30503 34269 ft 457 kts 195°
2026-05-05 13:46 40.56889 21.29876 33712 ft 456 kts 195°
2026-05-05 13:46 40.53770 21.29256 33149 ft 454 kts 195°
2026-05-05 13:46 40.50685 21.28647 32580 ft 453 kts 195°
2026-05-05 13:47 40.47585 21.27946 32011 ft 448 kts 198°
2026-05-05 13:47 40.44600 21.26933 31451 ft 442 kts 204°
2026-05-05 13:47 40.41737 21.25579 30876 ft 436 kts 209°
2026-05-05 13:47 40.38990 21.24042 30322 ft 432 kts 211°
2026-05-05 13:48 40.36276 21.22401 29784 ft 429 kts 212°
2026-05-05 13:48 40.33587 21.20725 29232 ft 427 kts 212°
2026-05-05 13:48 40.30940 21.19065 28698 ft 425 kts 212°
2026-05-05 13:48 40.28315 21.17425 28169 ft 424 kts 212°
2026-05-05 13:49 40.25682 21.15790 27623 ft 423 kts 211°
2026-05-05 13:49 40.23041 21.14161 27077 ft 421 kts 211°
2026-05-05 13:49 40.20372 21.12523 26524 ft 420 kts 211°
2026-05-05 13:49 40.17737 21.10912 25976 ft 418 kts 211°
2026-05-05 13:50 40.15100 21.09304 25435 ft 417 kts 211°
2026-05-05 13:50 40.12506 21.07726 24899 ft 415 kts 210°
2026-05-05 13:50 40.09907 21.06148 24353 ft 413 kts 210°
2026-05-05 13:50 40.07314 21.04577 23807 ft 411 kts 210°
2026-05-05 13:51 40.04706 21.03000 23261 ft 409 kts 209°
2026-05-05 13:51 40.02147 21.01454 22735 ft 407 kts 209°
2026-05-05 13:51 39.99578 20.99904 22212 ft 405 kts 209°
2026-05-05 13:51 39.97013 20.98358 21676 ft 403 kts 209°
2026-05-05 13:52 39.94500 20.96843 21150 ft 401 kts 208°
2026-05-05 13:52 39.91987 20.95332 20620 ft 399 kts 208°
2026-05-05 13:52 39.89475 20.93821 20096 ft 396 kts 208°
2026-05-05 13:52 39.87001 20.92336 19557 ft 385 kts 208°
2026-05-05 13:53 39.84619 20.90911 19051 ft 372 kts 208°
2026-05-05 13:53 39.82311 20.89529 18589 ft 360 kts 208°
2026-05-05 13:53 39.80069 20.88184 18136 ft 354 kts 208°
2026-05-05 13:53 39.77832 20.86838 17635 ft 353 kts 208°
2026-05-05 13:54 39.75605 20.85500 17156 ft 352 kts 208°
2026-05-05 13:54 39.73375 20.84160 16686 ft 350 kts 208°
2026-05-05 13:54 39.71270 20.82664 16221 ft 346 kts 217°
2026-05-05 13:54 39.69516 20.80578 15753 ft 338 kts 238°
2026-05-05 13:55 39.68416 20.77952 15320 ft 331 kts 250°
2026-05-05 13:55 39.67529 20.75214 14865 ft 329 kts 251°
2026-05-05 13:55 39.66658 20.72463 14418 ft 327 kts 250°
2026-05-05 13:55 39.65789 20.69776 13962 ft 327 kts 250°
2026-05-05 13:56 39.64899 20.67082 13525 ft 326 kts 249°
2026-05-05 13:56 39.64003 20.64410 13085 ft 325 kts 249°
2026-05-05 13:56 39.63084 20.61701 12606 ft 325 kts 249°
2026-05-05 13:56 39.62185 20.59064 12167 ft 324 kts 249°
2026-05-05 13:57 39.61268 20.56381 11725 ft 323 kts 248°
2026-05-05 13:57 39.60361 20.53722 11260 ft 322 kts 248°
2026-05-05 13:57 39.59461 20.51086 10814 ft 322 kts 248°
2026-05-05 13:57 39.58565 20.48468 10344 ft 317 kts 248°
2026-05-05 13:58 39.57692 20.45920 10113 ft 299 kts 248°
2026-05-05 13:58 39.56871 20.43534 10012 ft 282 kts 248°
2026-05-05 13:58 39.56081 20.41234 9584 ft 284 kts 248°
2026-05-05 13:58 39.55275 20.38878 9164 ft 284 kts 248°
2026-05-05 13:59 39.53682 20.34231 8446 ft 282 kts 247°
2026-05-05 13:59 39.52886 20.31916 8070 ft 281 kts 246°
2026-05-05 14:00 39.51294 20.27282 7347 ft 278 kts 246°
2026-05-05 14:00 39.50771 20.25760 7109 ft 277 kts 246°
2026-05-05 14:00 39.49735 20.22751 6637 ft 275 kts 246°
2026-05-05 14:00 39.48968 20.20528 6305 ft 274 kts 246°
2026-05-05 14:01 39.48183 20.18254 5918 ft 274 kts 246°
2026-05-05 14:01 39.47414 20.16023 5458 ft 276 kts 246°
2026-05-05 14:01 39.46637 20.13764 5171 ft 271 kts 246°
2026-05-05 14:01 39.45872 20.11545 4925 ft 263 kts 246°
2026-05-05 14:02 39.45146 20.09445 4709 ft 249 kts 246°
2026-05-05 14:02 39.44465 20.07454 4485 ft 238 kts 249°
2026-05-05 14:02 39.44024 20.05432 4240 ft 227 kts 261°
2026-05-05 14:02 39.43800 20.03468 3986 ft 217 kts 263°
2026-05-05 14:03 39.43594 20.01581 3766 ft 206 kts 262°
2026-05-05 14:03 39.43377 19.99822 3559 ft 195 kts 264°
2026-05-05 14:03 39.43567 19.98119 3396 ft 191 kts 298°
2026-05-05 14:03 39.44511 19.96938 3215 ft 193 kts 334°
2026-05-05 14:04 39.45757 19.96293 3016 ft 193 kts 339°
2026-05-05 14:04 39.47022 19.95706 2784 ft 190 kts 340°
2026-05-05 14:04 39.48282 19.95165 2464 ft 191 kts 342°
2026-05-05 14:04 39.49537 19.94672 2173 ft 191 kts 343°
2026-05-05 14:05 39.50809 19.94205 1905 ft 184 kts 344°
2026-05-05 14:05 39.52009 19.93784 1605 ft 174 kts 344°
2026-05-05 14:05 39.53182 19.93389 1401 ft 167 kts 345°
2026-05-05 14:05 39.54273 19.93050 1209 ft 164 kts 346°
2026-05-05 14:06 39.55367 19.92700 914 ft 157 kts 345°
2026-05-05 14:06 39.56426 19.92389 609 ft 159 kts 343°
2026-05-05 14:06 39.57487 19.92007 496 ft 156 kts 343°
2026-05-05 14:06 39.58537 19.91661 234 ft 154 kts 343°
2026-05-05 14:07 39.59571 19.91375 16 ft 144 kts 346°
2026-05-05 14:07 39.60317 19.91179 16 ft 72 kts 348°
2026-05-05 14:07 39.60604 19.91107 18 ft 22 kts 348°
2026-05-05 14:07 39.60756 19.91068 19 ft 21 kts 348°
2026-05-05 14:08 39.60894 19.91032 19 ft 19 kts 348°
2026-05-05 14:08 39.61005 19.91007 19 ft 9 kts 13°
2026-05-05 14:08 39.61045 19.91061 20 ft 7 kts 58°
2026-05-05 14:08 39.61048 19.91121 20 ft 6 kts 129°
2026-05-05 14:09 39.60986 19.91141 21 ft 13 kts 169°
2026-05-05 14:09 39.60899 19.91162 20 ft 12 kts 169°
2026-05-05 14:09 39.60820 19.91182 20 ft 11 kts 168°
2026-05-05 14:09 39.60768 19.91200 20 ft 3 kts 130°
2026-05-05 14:10 39.60767 19.91236 20 ft 4 kts 80°
2026-05-05 14:10 39.60773 19.91271 20 ft 3 kts 77°
2026-05-05 14:10 39.60779 19.91305 20 ft 3 kts 79°
2026-05-05 14:10 39.60782 19.91323 20 ft 0 kts 79°